Weather History for Lamoni, IA

Change the Weather History Date:

Thursday, January 17, 2013

  Actual Average Record
Temperature  
Mean Temperature 31 °F 24 °F  
Max Temperature 42 °F 33 °F 55 °F (1986)
Min Temperature 20 °F 15 °F -16 °F (1977)
Degree Days  
Heating Degree Days 34 41  
Month to date heating degree days 614 697  
Since 1 July heating degree days 2844 3126  
Cooling Degree Days 0 0  
Month to date cooling degree days 0 0  
Year to date cooling degree days 0 0  
Moisture  
Dew Point 21 °F    
Average Humidity 64    
Maximum Humidity 88    
Minimum Humidity 40    
Precipitation  
Precipitation 0.00 in 0.02 in 0.14 in (1969)
Month to date precipitation 0.39 0.34  
Sea Level Pressure  
Sea Level Pressure 30.38 in    
Wind  
Wind Speed 6 mph (NW)    
Max Wind Speed 21 mph    
Max Gust Speed 26 mph    
Visibility 10 miles    
Events      
T = Trace of Precipitation, MM = Missing Value Source: NWS Daily Summary

Daily Weather History Graph

Daily Weather History Graph

Search for Another Location

Airport:

Trip Planner

Search our weather history database for the weather conditions in past years. The results will help you decide how hot, cold, wet, or windy it might be!

Date:

Astronomy

Jan. 17, 2013 Rise Set
Actual Time 7:36 AM CST 5:15 PM CST
Civil Twilight 7:06 AM CST 5:45 PM CST
Nautical Twilight 6:32 AM CST 6:19 PM CST
Astronomical Twilight 6:00 AM CST 6:51 PM CST
Moon 10:41 AM CST (1/17) No Moon Set
Length of Visible Light 10h 39m
Length of Day
9h 39m
Waxing Crescent, 38% of the Moon is Illuminated
Jan 17
Waxing Crescent
Jan 18
First Quarter
Jan 26
Full
Feb 3
Last Quarter
Feb 10
New

Hourly Weather History & Observations

Time (CST) Temp. Windchill Dew Point Humidity Pressure Visibility Wind Dir Wind Speed Gust Speed Precip Events Conditions
12:53 AM 30.9 °F 22.2 °F 27.0 °F 85% 30.24 in 10.0 mi North 10.4 mph 19.6 mph N/A   Overcast
1:53 AM 30.0 °F 21.7 °F 25.0 °F 82% 30.26 in 10.0 mi North 9.2 mph - N/A   Scattered Clouds
2:53 AM 26.1 °F 18.4 °F 23.0 °F 88% 30.30 in 10.0 mi North 6.9 mph - N/A   Partly Cloudy
3:15 AM 26.6 °F 20.0 °F 24.8 °F 93% 30.27 in 10.0 mi NNW 5.8 mph - N/A   Mostly Cloudy
3:53 AM 26.1 °F 16.8 °F 21.9 °F 84% 30.31 in 10.0 mi North 9.2 mph - N/A   Scattered Clouds
4:02 AM 26.6 °F 20.0 °F 21.2 °F 80% 30.28 in 10.0 mi NNW 5.8 mph - N/A   Mostly Cloudy
4:17 AM 24.8 °F 16.9 °F 21.2 °F 86% 30.29 in 10.0 mi North 6.9 mph - N/A   Scattered Clouds
4:53 AM 24.1 °F 15.2 °F 21.9 °F 91% 30.34 in 10.0 mi North 8.1 mph - N/A   Scattered Clouds
5:04 AM 24.8 °F 17.9 °F 21.2 °F 86% 30.31 in 10.0 mi NNW 5.8 mph - N/A   Mostly Cloudy
5:30 AM 23.0 °F 13.9 °F 19.4 °F 86% 30.31 in 10.0 mi NNW 8.1 mph - N/A   Scattered Clouds
6:53 AM 21.0 °F 11.4 °F 17.1 °F 85% 30.41 in 10.0 mi North 8.1 mph - N/A   Clear
7:53 AM 19.9 °F 10.1 °F 16.0 °F 85% 30.43 in 10.0 mi North 8.1 mph - N/A   Clear
8:53 AM 21.9 °F 14.5 °F 16.0 °F 78% 30.48 in 10.0 mi North 5.8 mph - N/A   Clear
9:53 AM 26.1 °F 18.4 °F 16.0 °F 66% 30.49 in 10.0 mi NNW 6.9 mph - N/A   Clear
10:53 AM 28.9 °F 22.8 °F 12.0 °F 49% 30.48 in 10.0 mi North 5.8 mph - N/A   Clear
11:53 AM 34.0 °F 28.8 °F 14.0 °F 44% 30.45 in 10.0 mi WNW 5.8 mph - N/A   Clear
12:53 PM 37.9 °F 34.4 °F 16.0 °F 41% 30.44 in 10.0 mi NNW 4.6 mph - N/A   Clear
1:53 PM 39.0 °F 34.0 °F 18.0 °F 43% 30.42 in 10.0 mi West 6.9 mph - N/A   Mostly Cloudy
2:53 PM 41.0 °F 37.1 °F 19.9 °F 43% 30.42 in 10.0 mi NW 5.8 mph - N/A   Clear
3:53 PM 41.0 °F 38.0 °F 21.9 °F 47% 30.42 in 10.0 mi West 4.6 mph - N/A   Overcast
4:53 PM 39.0 °F 36.8 °F 24.1 °F 55% 30.43 in 10.0 mi West 3.5 mph - N/A   Mostly Cloudy
5:53 PM 37.0 °F - 24.1 °F 59% 30.45 in 10.0 mi Calm Calm - N/A   Clear
6:53 PM 36.0 °F 33.3 °F 24.1 °F 62% 30.45 in 10.0 mi SW 3.5 mph - N/A   Clear
7:53 PM 32.0 °F 27.5 °F 23.0 °F 69% 30.45 in 10.0 mi SW 4.6 mph - N/A   Clear
8:53 PM 30.9 °F 24.3 °F 21.9 °F 69% 30.43 in 10.0 mi SSW 6.9 mph - N/A   Clear
9:53 PM 30.0 °F 24.1 °F 21.9 °F 72% 30.43 in 10.0 mi SSW 5.8 mph - N/A   Clear
10:53 PM 30.0 °F 23.2 °F 21.9 °F 72% 30.40 in 10.0 mi South 6.9 mph - N/A   Clear
11:53 PM 28.0 °F 20.0 °F 21.0 °F 75% 30.39 in 10.0 mi SSE 8.1 mph - N/A   Clear